Dewpoint
55 55 55 55 55 51 45 41 37 43 46 41 36 35 28 33 31 34 32 29 24 19 23 21 23 23 29 31 31 28 30 28 27 25 30 31 27 24 23 22 24 25 25 31
54 55 55 55 54 51 42 34 31 42 42 38 31 32 30 30 30 30 31 30 31 30 25 26 28 29 35 33 31 31 31 28 26 24 28 30 30 29 27 25 28 26 22 27
54 54 55 54 54 51 43 36 42 39 37 34 29 29 29 29 35 32 33 32 32 30 28 30 28 29 35 34 34 37 34 26 23 19 18 25 27 28 29 28 29 20 21 21
54 54 54 54 53 51 43 37 33 32 35 31 30 31 30 29 29 34 34 32 31 29 26 27 27 29 33 35 38 35 32 28 30 27 24 22 22 21 21 28 28 20 14 13
54 54 54 54 52 50 42 37 34 31 30 29 31 31 28 28 29 31 30 32 27 30 26 23 20 25 26 25 35 33 34 28 28 24 20 21 22 22 22 21 21 24 25 23
54 54 54 54 51 48 41 38 37 33 29 29 27 25 26 27 31 31 30 31 29 28 29 30 29 27 28 26 28 31 31 31 27 21 22 23 18 16 17 21 22 21 19 21
54 54 54 54 51 48 43 40 38 35 31 29 27 28 28 27 29 29 31 32 30 32 33 32 31 30 29 29 28 29 29 29 28 25 23 17 17 18 18 16 17 20 22 22
54 54 54 54 52 49 46 43 39 36 35 32 31 30 28 27 28 28 30 31 33 34 32 29 24 21 19 24 28 29 32 28 25 23 19 19 18 20 20 18 15 15 17 20
53 53 53 53 54 49 49 46 42 39 36 34 28 30 29 31 29 28 28 34 35 34 31 28 23 21 14 17 27 31 30 31 25 23 22 16 15 22 23 22 14 13 21 21
53 53 53 53 53 52 50 49 44 42 40 39 30 33 33 30 32 32 28 29 34 35 30 27 26 24 16 15 15 26 27 28 27 25 24 22 25 26 25 18 8 19 19 22
53 53 53 53 53 53 50 49 46 42 40 40 36 34 35 34 31 33 31 33 33 32 30 29 28 24 21 18 18 24 25 25 25 26 24 23 26 26 22 23 22 22 26 28
52 52 53 53 53 53 51 49 44 45 43 42 42 40 38 36 37 37 34 34 31 33 32 31 29 25 24 22 20 24 21 23 22 24 24 27 27 25 27 27 27 28 29 29
50 50 50 51 51 52 51 49 46 46 42 42 41 39 40 41 38 37 36 34 34 36 38 38 37 32 31 26 25 25 23 24 24 23 23 25 26 27 29 29 30 31 32 32
46 46 47 48 49 52 50 47 46 46 44 39 35 39 39 39 39 40 38 39 38 39 39 37 37 34 34 32 30 28 27 26 25 26 26 27 27 28 29 31 31 31 32 32
45 44 44 45 46 47 50 50 47 47 43 36 35 36 34 38 37 38 39 38 38 38 36 36 36 37 34 35 34 31 30 28 27 26 26 27 28 30 32 31 31 31 32 32
44 45 45 44 44 45 45 40 47 46 46 39 32 36 38 36 36 36 37 38 37 38 37 36 37 39 34 33 31 29 30 31 31 30 31 31 32 32 31 30 31 31 32 32
40 41 43 44 44 44 39 37 45 47 47 40 35 34 37 35 34 34 35 36 36 36 36 36 37 37 37 34 29 29 29 30 30 30 30 29 29 28 30 31 31 32 28 28
38 39 41 42 43 43 39 43 45 47 43 40 34 31 32 36 34 33 34 35 35 35 35 36 34 36 36 31 30 28 29 29 29 28 28 29 29 30 29 26 27 28 28 29
39 40 42 42 40 36 38 45 46 47 41 33 33 29 27 34 32 33 33 34 31 35 33 34 36 33 29 31 29 28 27 27 26 27 27 27 25 24 23 24 25 25 26 27
40 40 35 31 38 42 43 41 36 37 37 36 31 32 28 31 32 32 30 32 29 28 28 33 31 28 28 27 27 29 29 30 30 27 28 29 28 28 27 26 25 24 24 25
38 34 32 39 42 39 35 33 31 32 30 32 29 28 26 32 28 26 31 29 29 24 23 27 25 22 23 29 30 31 30 30 30 31 32 32 32 32 31 29 27 27 26 26
38 38 39 38 33 32 28 26 27 27 22 29 31 29 29 30 32 29 32 28 29 21 28 27 21 21 29 30 32 33 33 31 29 27 29 28 27 28 27 27 27 27 27 27
38 34 33 30 29 23 20 17 21 25 29 31 32 30 32 34 35 33 31 27 24 27 25 19 19 28 30 33 34 33 31 31 29 28 29 29 28 29 30 30 30 30 29 28
29 26 20 21 20 20 21 21 24 28 30 30 31 30 29 30 31 30 26 25 27 24 20 19 19 29 31 33 35 33 31 27 26 26 26 27 30 30 31 31 31 31 28 28
27 27 18 21 23 26 27 30 28 29 31 29 27 27 28 28 28 26 25 22 19 19 15 24 30 34 34 34 31 29 25 25 23 24 25 24 27 28 29 30 28 31 30 28
28 26 23 24 24 25 27 27 26 31 29 30 27 24 22 21 23 21 20 18 13 17 29 29 26 32 33 34 31 24 23 25 24 26 28 25 25 28 29 29 29 29 30 28
25 23 26 26 26 26 25 25 25 27 28 25 24 21 17 21 19 16 17 17 21 28 27 26 23 19 18 17 19 20 22 23 23 23 24 25 26 28 29 29 29 27 28 27
Lifted_Index
7 8 8 8 8 8 8 7 7 9 9 8 7 8 8 9 9 9 8 8 8 7 6 5 5 5 6 6 6 6 6 4 3 3 5 6 5 5 4 4 3 3 2 1
7 8 8 8 8 8 7 7 7 8 9 8 8 8 8 9 9 9 8 8 8 7 7 6 6 6 6 6 6 6 6 5 3 3 4 5 5 5 5 4 3 2 2 1
8 8 8 8 8 7 7 6 6 7 7 7 7 8 8 8 8 8 8 8 8 8 7 7 7 7 7 7 7 7 7 6 5 4 5 5 5 5 6 5 4 3 2 2
9 8 8 8 8 7 7 7 6 6 6 6 6 7 7 8 8 9 9 9 8 8 8 7 7 8 8 8 8 8 7 6 6 6 6 6 6 6 6 5 4 3 3 3
9 8 8 8 8 7 7 7 7 7 6 6 6 6 6 6 8 9 9 9 9 9 8 8 8 9 9 9 9 9 8 7 6 6 6 6 5 5 5 5 5 5 4 4
9 8 8 8 8 7 7 7 7 7 7 6 6 6 5 6 6 8 9 9 8 9 9 9 9 10 10 9 9 9 8 8 6 5 5 5 5 5 5 6 6 6 6 6
9 8 8 8 8 7 7 7 7 7 7 7 7 6 6 6 6 6 7 8 8 8 9 9 8 8 8 9 9 9 9 8 6 4 4 4 5 6 6 6 7 8 8 8
9 9 8 8 8 8 7 6 6 6 6 7 7 7 6 6 6 5 6 7 8 9 8 7 6 5 6 6 7 8 9 8 5 4 3 3 5 6 7 7 7 8 9 10
10 9 9 9 9 8 8 7 7 6 6 6 7 7 7 6 6 6 6 7 8 8 7 6 5 4 5 5 6 7 8 7 5 3 3 3 4 6 7 6 6 9 10 10
10 10 9 9 9 9 9 8 8 7 7 7 7 8 7 7 7 7 7 7 7 7 7 6 6 6 6 6 6 6 6 6 5 5 4 4 5 7 7 6 7 9 10 10
9 9 9 10 10 10 9 9 9 8 8 8 8 8 8 8 7 7 7 7 7 7 7 7 7 7 7 7 6 6 7 7 6 6 6 6 6 7 8 8 9 10 10 10
9 9 9 9 10 10 10 9 9 9 9 8 8 8 8 8 8 7 7 7 7 7 7 7 7 7 7 7 7 7 8 8 8 7 7 7 8 8 9 9 10 10 10 10
9 9 9 9 9 9 9 9 9 9 10 9 9 9 9 9 8 8 8 8 8 7 7 7 8 8 8 7 8 8 9 8 8 8 8 9 9 9 9 10 10 10 10 10
10 10 10 9 9 9 9 9 9 9 9 10 9 9 9 9 9 8 8 8 8 7 7 7 8 8 8 9 9 9 9 9 9 9 9 9 9 9 9 10 10 10 11 11
11 11 11 10 10 9 9 9 9 9 9 10 10 10 10 9 9 8 8 8 8 8 8 8 8 8 8 9 9 9 9 9 9 9 9 9 9 9 9 10 10 10 10 10
12 12 11 11 11 10 10 10 10 9 9 10 10 10 10 10 10 9 9 9 9 9 8 8 8 8 8 8 8 8 9 9 9 9 9 9 10 10 10 10 10 10 9 9
13 12 12 11 11 11 11 10 10 9 9 10 10 10 10 10 10 9 9 9 9 9 9 9 8 8 8 8 8 8 9 9 9 9 9 10 10 10 10 10 10 9 8 8
13 12 12 11 11 11 11 11 10 9 9 10 10 10 10 10 10 9 8 8 8 9 9 9 9 9 8 8 8 8 9 9 10 10 10 10 10 10 10 9 9 8 7 7
12 12 11 11 11 11 11 10 10 9 9 10 10 10 10 10 10 9 8 8 8 9 9 9 9 9 8 8 8 8 9 9 9 9 9 9 9 9 8 8 7 7 6 6
11 11 11 11 10 10 10 10 9 9 9 10 10 9 9 9 9 9 8 9 9 9 9 9 8 8 8 8 8 8 8 8 8 8 8 8 8 8 7 7 7 7 6 6
11 11 11 10 10 9 9 9 9 9 9 9 9 9 9 9 9 9 8 8 9 9 8 8 8 8 8 7 7 7 7 7 7 7 8 8 8 7 7 7 7 7 7 7
10 10 10 10 9 9 8 8 8 8 8 8 8 8 8 8 8 7 7 7 7 8 8 7 8 7 7 6 6 6 6 7 7 7 7 7 7 7 7 8 8 8 8 7
9 9 9 9 8 8 7 7 6 6 6 6 6 6 6 6 6 5 5 5 6 6 6 6 6 6 5 5 5 6 6 6 7 7 7 7 7 7 7 7 7 7 8 8
8 8 8 7 7 6 5 5 5 5 5 5 5 5 4 4 4 3 4 4 4 4 5 5 4 4 4 4 5 6 6 6 6 6 6 6 6 6 5 5 6 6 7 7
7 7 7 6 5 4 4 4 4 4 4 4 4 4 4 3 3 3 3 3 3 3 3 3 3 3 3 4 4 5 5 5 5 5 5 6 5 5 5 5 5 5 5 6
6 6 5 4 3 3 3 4 4 3 3 3 3 3 3 3 3 3 3 3 3 3 3 3 3 3 3 4 4 5 5 5 5 5 5 5 5 5 5 5 5 5 5 5
5 4 4 3 2 2 2 3 3 3 2 3 3 3 3 4 4 4 4 3 3 3 3 3 3 4 4 4 4 5 5 5 5 5 5 5 5 5 5 5 5 5 5 5